When you browse on this site, cookies collect data to enhance your experience and personalize the content and advertising you see.
Visit our Privacy Policy to learn more. By continuing to use the site, you agree to this use of cookies and data.
  • In Österreich
  • Länderverzeichnis
  • Für 7 Tage
  • Wassertemperatur
  • Wetterkarte
  • News
  • Widgets
  • user-avatar
    Anmelden

    Stündliche Wetter Rincon

    Heute, 12 Dezember, Donnerstag

    Zeit Temperatur Niederschläge Wind Luftdruck Luftfeuchtigkeit
    00:00 +26°C° 0 mm 7 m/S 760 mmHg 84%
    01:00 +26°C° 0 mm 7 m/S 760 mmHg 85%
    02:00 +26°C° 0 mm 6 m/S 760 mmHg 86%
    03:00 +24°C° 0 mm 6 m/S 760 mmHg 87%
    04:00 +24°C° 0 mm 6 m/S 759 mmHg 88%
    05:00 +24°C° 0 mm 6 m/S 759 mmHg 89%
    06:00 +26°C° 0.1 mm 7 m/S 760 mmHg 88%
    07:00 +26°C° 0.1 mm 7 m/S 760 mmHg 87%
    08:00 +27°C° 0 mm 7 m/S 760 mmHg 84%
    09:00 +28°C° 0 mm 7 m/S 761 mmHg 80%
    10:00 +29°C° 0 mm 8 m/S 761 mmHg 75%
    11:00 +31°C° 0 mm 8 m/S 761 mmHg 70%
    12:00 +31°C° 0.1 mm 8 m/S 760 mmHg 71%
    13:00 +30°C° 0.1 mm 7 m/S 760 mmHg 72%
    14:00 +30°C° 0.1 mm 7 m/S 759 mmHg 72%
    15:00 +29°C° 0.5 mm 8 m/S 759 mmHg 75%
    16:00 +29°C° 0.5 mm 8 m/S 758 mmHg 78%
    17:00 +28°C° 0.5 mm 8 m/S 758 mmHg 81%
    18:00 +27°C° 0.1 mm 8 m/S 759 mmHg 83%
    19:00 +26°C° 0.1 mm 8 m/S 759 mmHg 84%
    20:00 +26°C° 0.1 mm 8 m/S 759 mmHg 85%
    21:00 +26°C° 0 mm 8 m/S 759 mmHg 85%
    22:00 +26°C° 0 mm 8 m/S 760 mmHg 85%
    23:00 +26°C° 0 mm 7 m/S 760 mmHg 85%

    Morgen, 13 Dezember, Freitag

    Zeit Temperatur Niederschläge Wind Luftdruck Luftfeuchtigkeit
    00:00 +24°C° 0 mm 7 m/S 759 mmHg 86%
    01:00 +24°C° 0 mm 7 m/S 759 mmHg 87%
    02:00 +24°C° 0 mm 7 m/S 759 mmHg 88%
    03:00 +24°C° 0.1 mm 6 m/S 759 mmHg 89%
    04:00 +23°C° 0.1 mm 6 m/S 758 mmHg 90%
    05:00 +23°C° 0.1 mm 5 m/S 758 mmHg 90%
    06:00 +25°C° 0 mm 5 m/S 759 mmHg 89%
    07:00 +25°C° 0 mm 5 m/S 759 mmHg 88%
    08:00 +26°C° 0 mm 6 m/S 759 mmHg 87%
    09:00 +27°C° 0 mm 5 m/S 760 mmHg 80%
    10:00 +29°C° 0 mm 5 m/S 760 mmHg 74%
    11:00 +30°C° 0 mm 4 m/S 760 mmHg 68%
    12:00 +30°C° 0.2 mm 4 m/S 759 mmHg 69%
    13:00 +30°C° 0.2 mm 4 m/S 759 mmHg 70%
    14:00 +30°C° 0.2 mm 4 m/S 758 mmHg 71%
    15:00 +29°C° 0.3 mm 4 m/S 758 mmHg 74%
    16:00 +29°C° 0.3 mm 4 m/S 758 mmHg 78%
    17:00 +28°C° 0.3 mm 4 m/S 758 mmHg 81%
    18:00 +27°C° 0 mm 5 m/S 758 mmHg 83%
    19:00 +26°C° 0 mm 5 m/S 759 mmHg 85%
    20:00 +25°C° 0 mm 5 m/S 759 mmHg 88%
    21:00 +25°C° 0 mm 5 m/S 759 mmHg 88%
    22:00 +25°C° 0 mm 5 m/S 759 mmHg 89%
    23:00 +23°C° 0 mm 5 m/S 759 mmHg 89%

    übermorgen, 14 Dezember, Samstag

    Zeit Temperatur Niederschläge Wind Luftdruck Luftfeuchtigkeit
    00:00 +23°C° 0 mm 5 m/S 759 mmHg 89%
    01:00 +23°C° 0 mm 5 m/S 759 mmHg 90%
    02:00 +23°C° 0 mm 4 m/S 759 mmHg 90%
    03:00 +23°C° 0 mm 5 m/S 759 mmHg 91%
    04:00 +23°C° 0 mm 5 m/S 759 mmHg 91%
    05:00 +23°C° 0 mm 5 m/S 758 mmHg 92%
    06:00 +25°C° 0 mm 4 m/S 759 mmHg 90%
    07:00 +25°C° 0 mm 4 m/S 759 mmHg 89%
    08:00 +25°C° 0 mm 4 m/S 760 mmHg 87%
    09:00 +27°C° 0 mm 3 m/S 760 mmHg 80%
    10:00 +29°C° 0 mm 3 m/S 760 mmHg 74%
    11:00 +30°C° 0 mm 3 m/S 760 mmHg 67%
    12:00 +31°C° 0 mm 3 m/S 760 mmHg 66%
    13:00 +31°C° 0 mm 3 m/S 759 mmHg 65%
    14:00 +31°C° 0 mm 3 m/S 759 mmHg 64%
    15:00 +31°C° 0.2 mm 3 m/S 758 mmHg 69%
    16:00 +30°C° 0.2 mm 3 m/S 758 mmHg 74%
    17:00 +29°C° 0.2 mm 3 m/S 758 mmHg 79%
    18:00 +28°C° 0.2 mm 3 m/S 759 mmHg 82%
    19:00 +27°C° 0.2 mm 3 m/S 759 mmHg 85%
    20:00 +26°C° 0.2 mm 3 m/S 760 mmHg 88%
    21:00 +25°C° 0 mm 3 m/S 760 mmHg 88%
    22:00 +25°C° 0 mm 3 m/S 760 mmHg 89%
    23:00 +25°C° 0 mm 3 m/S 760 mmHg 89%

    15 Dezember, Sonntag

    Zeit Temperatur Niederschläge Wind Luftdruck Luftfeuchtigkeit
    00:00 +25°C° 0 mm 3 m/S 760 mmHg 89%
    01:00 +25°C° 0 mm 3 m/S 760 mmHg 90%
    02:00 +25°C° 0 mm 4 m/S 760 mmHg 90%
    03:00 +24°C° 0 mm 3 m/S 760 mmHg 89%
    04:00 +24°C° 0 mm 3 m/S 760 mmHg 89%
    05:00 +24°C° 0 mm 3 m/S 760 mmHg 89%
    06:00 +25°C° 0 mm 3 m/S 760 mmHg 88%
    07:00 +25°C° 0 mm 3 m/S 761 mmHg 87%
    08:00 +26°C° 0 mm 3 m/S 761 mmHg 86%
    09:00 +27°C° 0 mm 3 m/S 761 mmHg 79%
    10:00 +29°C° 0 mm 3 m/S 762 mmHg 73%
    11:00 +31°C° 0 mm 3 m/S 762 mmHg 67%
    12:00 +31°C° 0.2 mm 3 m/S 761 mmHg 70%
    13:00 +30°C° 0.2 mm 3 m/S 761 mmHg 72%
    14:00 +30°C° 0.2 mm 4 m/S 760 mmHg 75%
    15:00 +30°C° 0.5 mm 4 m/S 760 mmHg 78%
    16:00 +29°C° 0.5 mm 4 m/S 760 mmHg 81%
    17:00 +29°C° 0.5 mm 4 m/S 760 mmHg 85%
    18:00 +28°C° 0.2 mm 4 m/S 760 mmHg 86%
    19:00 +27°C° 0.2 mm 5 m/S 761 mmHg 88%
    20:00 +26°C° 0.2 mm 6 m/S 761 mmHg 89%
    21:00 +26°C° 0 mm 6 m/S 761 mmHg 90%
    22:00 +26°C° 0 mm 6 m/S 761 mmHg 90%
    23:00 +24°C° 0 mm 6 m/S 761 mmHg 91%

    16 Dezember, Montag

    Zeit Temperatur Niederschläge Wind Luftdruck Luftfeuchtigkeit
    00:00 +24°C° 0 mm 6 m/S 761 mmHg 91%
    01:00 +24°C° 0 mm 6 m/S 761 mmHg 92%
    02:00 +24°C° 0 mm 6 m/S 760 mmHg 92%
    03:00 +24°C° 0 mm 6 m/S 760 mmHg 92%
    04:00 +24°C° 0 mm 6 m/S 760 mmHg 92%
    05:00 +24°C° 0 mm 6 m/S 760 mmHg 92%
    06:00 +24°C° 0 mm 6 m/S 761 mmHg 91%
    07:00 +26°C° 0 mm 6 m/S 761 mmHg 90%
    08:00 +26°C° 0 mm 6 m/S 762 mmHg 89%
    09:00 +27°C° 0 mm 7 m/S 762 mmHg 82%
    10:00 +29°C° 0 mm 7 m/S 762 mmHg 76%
    11:00 +30°C° 0 mm 7 m/S 762 mmHg 69%
    12:00 +32°C° 0 mm 7 m/S 762 mmHg 69%
    13:00 +32°C° 0 mm 7 m/S 761 mmHg 69%
    14:00 +32°C° 0 mm 7 m/S 760 mmHg 69%
    15:00 +30°C° 0.3 mm 7 m/S 760 mmHg 73%
    16:00 +29°C° 0.3 mm 7 m/S 760 mmHg 78%
    17:00 +28°C° 0.3 mm 7 m/S 760 mmHg 82%
    18:00 +28°C° 0.1 mm 8 m/S 760 mmHg 84%
    19:00 +27°C° 0.1 mm 8 m/S 760 mmHg 86%
    20:00 +26°C° 0.1 mm 8 m/S 761 mmHg 87%
    21:00 +26°C° 0 mm 8 m/S 761 mmHg 87%
    22:00 +26°C° 0 mm 8 m/S 761 mmHg 88%
    23:00 +26°C° 0 mm 8 m/S 761 mmHg 88%

    17 Dezember, Dienstag

    Zeit Temperatur Niederschläge Wind Luftdruck Luftfeuchtigkeit
    00:00 +26°C° 0 mm 8 m/S 761 mmHg 88%
    01:00 +26°C° 0 mm 8 m/S 761 mmHg 89%
    02:00 +24°C° 0 mm 7 m/S 760 mmHg 90%
    03:00 +24°C° 0 mm 7 m/S 760 mmHg 90%
    04:00 +24°C° 0 mm 7 m/S 760 mmHg 91%
    05:00 +24°C° 0 mm 6 m/S 760 mmHg 91%
    06:00 +24°C° 0 mm 6 m/S 760 mmHg 90%
    07:00 +24°C° 0 mm 6 m/S 761 mmHg 89%
    08:00 +26°C° 0 mm 6 m/S 761 mmHg 88%
    09:00 +27°C° 0.1 mm 5 m/S 761 mmHg 81%
    10:00 +29°C° 0.1 mm 5 m/S 761 mmHg 74%
    11:00 +30°C° 0.1 mm 4 m/S 762 mmHg 67%
    12:00 +32°C° 0.3 mm 4 m/S 761 mmHg 67%
    13:00 +32°C° 0.3 mm 4 m/S 760 mmHg 67%
    14:00 +32°C° 0.3 mm 4 m/S 760 mmHg 67%
    15:00 +30°C° 0.6 mm 4 m/S 760 mmHg 72%
    16:00 +29°C° 0.6 mm 4 m/S 759 mmHg 76%
    17:00 +29°C° 0.6 mm 4 m/S 759 mmHg 80%
    18:00 +27°C° 0.1 mm 5 m/S 760 mmHg 82%
    19:00 +26°C° 0.1 mm 5 m/S 760 mmHg 85%
    20:00 +24°C° 0.1 mm 6 m/S 760 mmHg 87%
    21:00 +24°C° 0 mm 6 m/S 760 mmHg 87%
    22:00 +25°C° 0 mm 5 m/S 760 mmHg 87%
    23:00 +25°C° 0 mm 5 m/S 761 mmHg 87%
    Mehr zeigen